EW6230 Weather Reports


Display with metric or nautical units.
time (UTC)temp
F
wind
direction
speed
MPH
gust
MPH
rain 1hr
in
rain 24hr
in
rain mn
in
humidity
%
barometer
mb
20260505173022 53 132 0.0 0.0 0.00 0.00 0.00 1 1012.2
20260505171518 53 132 0.0 0.0 0.00 0.00 0.00 1 1012.1
20260505170014 53 194 0.0 0.0 0.00 0.00 0.00 1 1012.0
20260505164509 52 194 0.0 0.0 0.00 0.00 0.00 1 1012.1
20260505163008 52 194 0.0 0.0 0.00 0.00 0.00 1 1012.1
20260505161610 52 194 0.0 0.0 0.00 0.00 0.00 1 1012.0
20260505153047 52 194 0.0 0.0 0.00 0.00 0.00 1 1011.8
20260505151542 51 194 0.0 0.0 0.00 0.00 0.00 1 1011.5
20260505124601 0 0.0 0.0 0.00 0.00 0.00 1010.1
20260505123056 48 192 0.0 0.0 0.00 0.00 0.00 1 1010.1
20260505121552 49 194 0.0 0.0 0.00 0.00 0.00 1 1009.9
20260505120046 48 194 0.0 0.0 0.00 0.00 0.00 1 1009.7
20260505114541 48 194 0.0 0.0 0.00 0.00 0.00 1 1009.6
20260505113037 47 194 0.0 0.0 0.00 0.00 0.00 1 1009.4
20260505111532 47 194 0.0 0.0 0.00 0.00 0.00 1 1009.2
20260505101514 48 194 0.0 0.0 0.00 0.00 0.00 1 1008.7
20260505100016 48 194 0.0 0.0 0.00 0.00 0.00 1 1008.7
20260505094505 49 194 0.0 0.0 0.00 0.00 0.00 1 1008.7
20260505093102 49 194 0.0 0.0 0.00 0.00 0.00 1 1008.6
20260505091605 49 194 0.0 0.0 0.00 0.00 0.00 1 1008.6
20260505090058 49 194 0.0 0.0 0.00 0.00 0.00 1 1008.5
20260505084554 49 194 0.0 0.0 0.00 0.00 0.00 1 1008.5
20260505083055 49 194 0.0 0.0 0.00 0.00 0.00 1 1008.3
20260505081539 49 194 0.0 0.0 0.00 0.00 0.00 1 1008.2
20260505080043 49 194 0.0 0.0 0.00 0.00 0.00 1 1008.1
20260505074530 49 194 0.0 0.0 0.00 0.00 0.00 1 1008.0
20260505073033 50 194 0.0 0.0 0.00 0.00 0.00 1 1007.8
20260505071521 50 194 0.0 0.0 0.00 0.00 0.00 1 1007.8
20260505070017 50 194 0.0 0.0 0.00 0.00 0.00 1 1007.6
20260505064512 50 194 0.0 0.0 0.00 0.00 0.00 1 1007.5
20260505063007 51 194 0.0 0.0 0.00 0.00 0.00 1 1007.2
20260505061504 51 194 0.0 0.0 0.00 0.00 0.00 1 1007.0
20260505060059 51 194 0.0 0.0 0.00 0.00 0.00 1 1007.0
20260505054558 52 194 0.0 0.0 0.00 0.00 0.00 1 1006.7
20260505053049 52 194 0.0 0.0 0.00 0.00 0.00 1 1006.6
20260505051545 53 194 0.0 0.0 0.00 0.00 0.00 1 1006.5
20260505041528 55 193 0.0 0.0 0.00 0.00 0.00 21 1006.1
20260505040023 56 193 0.0 0.0 0.00 0.00 0.00 23 1006.0
20260505034523 57 116 0.0 0.0 0.00 0.00 0.00 34 1005.9
20260505033017 58 116 0.0 0.0 0.00 0.00 0.00 41 1005.8
20260505031512 59 116 0.0 0.0 0.00 0.00 0.00 46 1005.8
20260505030006 59 116 0.0 0.0 0.00 0.00 0.00 51 1005.8
20260505024502 60 116 0.0 0.0 0.00 0.00 0.00 52 1005.8
20260505023057 60 116 0.0 0.0 0.00 0.00 0.00 54 1005.6
20260505021555 61 50 0.0 0.0 0.00 0.00 0.00 57 1005.7
20260505020051 62 48 0.0 0.0 0.00 0.00 0.00 59 1005.7
20260505014601 63 49 0.0 0.0 0.00 0.00 0.00 60 1005.9
20260505013039 64 48 0.0 0.0 0.00 0.00 0.00 60 1005.9
20260505011541 66 49 0.0 0.0 0.00 0.00 0.00 59 1005.9
20260505010031 68 49 0.0 0.0 0.00 0.00 0.00 56 1005.8
20260505004526 70 59 0.0 0.0 0.00 0.00 0.00 55 1005.8
20260505003021 72 23 0.0 0.0 0.00 0.00 0.00 53 1005.8
20260505001517 74 68 0.0 0.0 0.00 0.00 0.00 51 1005.9
20260505000016 76 70 0.0 0.0 0.00 0.00 0.00 49 1005.9
20260504234514 76 79 0.0 0.0 0.00 0.00 0.00 50 1006.0
20260504233011 75 27 0.0 0.0 0.00 0.00 0.00 53 1005.9
20260504231506 77 26 0.0 0.0 0.00 0.00 0.00 50 1005.9
20260504230003 77 24 0.0 0.0 0.00 0.00 0.00 47 1006.1
20260504224559 78 82 0.0 0.0 0.00 0.00 0.00 46 1006.3
20260504223054 77 104 0.0 0.0 0.00 0.00 0.00 49 1006.5
20260504221549 76 356 0.0 0.0 0.00 0.00 0.00 47 1006.5
20260504220046 75 21 0.0 0.0 0.00 0.00 0.00 49 1006.5
20260504214550 74 29 0.0 0.0 0.00 0.00 0.00 52 1006.7
20260504213036 74 59 0.0 0.0 0.00 0.00 0.00 49 1006.8
20260504211534 76 94 0.0 0.0 0.00 0.00 0.00 46 1006.9
20260504210036 76 221 0.0 0.0 0.00 0.00 0.00 45 1006.9
20260504204531 77 221 0.0 0.0 0.00 0.00 0.00 44 1006.9
20260504203024 78 220 0.0 0.0 0.00 0.00 0.00 44 1006.9
20260504201513 76 196 0.0 0.0 0.00 0.00 0.00 49 1006.8
20260504200009 76 194 0.0 0.0 0.00 0.00 0.00 46 1006.9
20260504194506 74 194 0.0 0.0 0.00 0.00 0.00 45 1006.9
20260504193100 74 194 0.0 0.0 0.00 0.00 0.00 44 1007.0
20260504191600 78 193 0.0 0.0 0.00 0.00 0.00 40 1006.9
20260504190054 80 171 0.0 0.0 0.00 0.00 0.00 39 1006.8
20260504184547 79 172 0.0 0.0 0.00 0.00 0.00 38 1006.9
20260504183043 79 167 0.0 0.0 0.00 0.00 0.00 36 1007.0
20260504181539 78 150 0.0 0.0 0.00 0.00 0.00 38 1007.1
20260504180033 79 148 0.0 0.0 0.00 0.00 0.00 38 1007.1
20260504174529 77 150 0.0 0.0 0.00 0.00 0.00 39 1007.1